This demonstration page uses our WeatherBlox Daily Observations layout. Learn more.

Left ArrowRight Arrow

41.86663, -103.66717

Hourly Observations for March 21, 2016

Temp ( °F °C ) Dew Point ( °F °C ) Humidity (%) Winds ( mph kmh ) Pressure ( in mb ) Visibility ( mi km ) Precip ( " mm )
12:53 am 00:53 Clear 30 -1 N/A N/A NE 6 9 29.97 1015 10 16 N/A
1:53 am 01:53 Clear 30 -1 N/A N/A NNE 10 17 29.95 1014 10 16 N/A
2:53 am 02:53 Clear 30 -1 N/A N/A N 5 7 29.91 1013 10 16 N/A
3:53 am 03:53 Clear 28 -2 N/A N/A NNE 5 7 29.88 1012 10 16 N/A
4:53 am 04:53 Clear 27 -3 N/A N/A N 3 6 29.88 1012 10 16 N/A
5:53 am 05:53 Clear 27 -3 N/A N/A N N/A 29.86 1011 10 16 N/A
6:53 am 06:53 Clear 28 -2 N/A N/A NNW 3 6 29.88 1012 10 16 N/A
7:53 am 07:53 Sunny 34 1 N/A N/A N 3 6 29.87 1012 10 16 N/A
8:53 am 08:53 Sunny 43 6.1 24 -4.4 47 47 N N/A 29.84 1011 10 16 N/A
9:53 am 09:53 Sunny 51 10.6 26 -3.3 38 38 W 8 13 29.85 1011 10 16 N/A
10:53 am 10:53 Sunny 60 15.6 26 -3.3 27 27 W 9 15 29.82 1010 10 16 N/A
11:53 am 11:53 Sunny 69 20.6 23 -5 17 17 WSW 13 20 29.77 1008 10 16 N/A
12:53 pm 12:53 Sunny 74 23.3 19 -7.2 12 12 WNW 24 39 29.73 1007 10 16 N/A
1:53 pm 13:53 Sunny 76 24.4 19 -7.2 12 12 W 26 43 29.69 1005 10 16 N/A
2:53 pm 14:53 Sunny 74 23.3 17 -8.3 11 11 W 26 43 29.67 1005 10 16 N/A
3:53 pm 15:53 Sunny 73 22.8 18 -7.8 12 12 WNW 25 41 29.66 1004 10 16 N/A
4:53 pm 16:53 Sunny 72 22.2 18 -7.8 13 13 WNW 20 31 29.66 1004 10 16 N/A
5:53 pm 17:53 Sunny 69 20.6 17 -8.3 14 14 WNW 16 26 29.67 1005 10 16 N/A
6:53 pm 18:53 Sunny 67 19.4 16 -8.9 14 14 W 18 30 29.68 1005 10 16 N/A
7:53 pm 19:53 Clear 64 17.8 17 -8.3 16 16 W 13 20 29.68 1005 10 16 N/A
8:53 pm 20:53 Clear 58 14.4 20 -6.7 23 23 W 7 11 29.67 1005 10 16 N/A
9:53 pm 21:53 Clear 54 12.2 22 -5.6 29 29 NW 6 9 29.65 1004 10 16 N/A
10:53 pm 22:53 Clear 51 10.6 24 -4.4 35 35 N 13 20 29.63 1004 10 16 N/A
11:53 pm 23:53 Clear 50 10 24 -4.4 36 36 NW 8 13 29.60 1002 10 16 N/A

Powered by AerisWeather